User: anonymous   Login
Location: Unspecified
(0.0000°N, 0.0000°E)
Time: 20:48:44
(UTC+00:00)
Language:

Nova 1 - Orbit

View from above orbital plane
View from above orbital plane
View from above satellite
View from above satellite

Ground track
Ground track

The orbit data is extracted from the following two-line orbital elements,

1 12458U 81044A   18141.01007824  .00000035  00000-0  62696-4 0  9995
2 12458  89.9404 119.8110 0015221 153.7637 270.5103 13.22979610786818
Epoch (UTC): 21 May 2018 00:14:30
Eccentricity: 0.0015221
inclination: 89.9404°
perigee height: 1162 km
apogee height: 1185 km
right ascension of ascending node: 119.8110°
argument of perigee: 153.7637°
revolutions per day: 13.22979610
mean anomaly at epoch: 270.5103°
orbit number at epoch: 78681

The dashed part of the orbit path shows where the satellite is in the earth's shadow,  

DLR